This demonstration page uses our WeatherBlox Daily Observations layout. Learn more.

Left ArrowRight Arrow

44.31136, -96.79839

Hourly Observations for August 1, 2017

Temp ( °F °C ) Dew Point ( °F °C ) Humidity (%) Winds ( mph kmh ) Pressure ( in mb ) Visibility ( mi km ) Precip ( " mm )
12:56 am 00:56 Clear 67 19.4 62 16.7 84 84 SSE 6 9 30.14 1021 N/A 0.00 0.00
1:56 am 01:56 Clear 65 18.3 61 16.1 87 87 S 3 6 30.13 1020 N/A 0.00 0.00
2:56 am 02:56 Clear 65 18.3 61 16.1 87 87 Calm 30.13 1020 N/A 0.00 0.00
3:56 am 03:56 Clear 64 17.8 61 16.1 90 90 SSW 7 11 30.11 1020 N/A 0.00 0.00
4:56 am 04:56 Clear 63 17.2 61 16.1 93 93 Calm 30.11 1020 N/A 0.00 0.00
5:56 am 05:56 Clear 64 17.8 61 16.1 90 90 Calm 30.12 1020 N/A 0.00 0.00
6:56 am 06:56 Sunny 64 17.8 61 16.1 90 90 undefined N/A 30.12 1020 N/A 0.00 0.00
7:56 am 07:56 Sunny 66 18.9 63 17.2 90 90 Calm 30.13 1020 N/A 0.00 0.00
8:56 am 08:56 Sunny 70 21.1 65 18.3 84 84 Calm 30.13 1020 N/A 0.00 0.00
9:56 am 09:56 Sunny 73 22.8 68 20 84 84 VRB 3 6 30.13 1020 N/A 0.00 0.00
10:56 am 10:56 Sunny 78 25.6 70 21.1 76 76 W 3 6 30.11 1020 N/A 0.00 0.00
11:56 am 11:56 Sunny 81 27.2 68 20 65 65 NNW 6 9 30.11 1020 N/A 0.00 0.00
12:56 pm 12:56 Sunny 81 27.2 68 20 65 65 NNW 8 13 30.12 1020 N/A 0.00 0.00
1:56 pm 13:56 Sunny 84 28.9 65 18.3 53 53 NNW 12 19 30.10 1019 N/A 0.00 0.00
2:56 pm 14:56 Mostly Sunny 84 28.9 66 18.9 55 55 NNE 8 13 30.09 1019 N/A 0.00 0.00
3:56 pm 15:56 Sunny 84 28.9 64 17.8 51 51 N 7 11 30.10 1019 N/A 0.00 0.00
4:56 pm 16:56 Sunny 82 27.8 67 19.4 60 60 NNW 8 13 30.09 1019 N/A 0.00 0.00
5:56 pm 17:56 Sunny 80 26.7 66 18.9 62 62 NNW 7 11 30.11 1020 N/A 0.00 0.00
6:56 pm 18:56 Sunny 79 26.1 68 20 69 69 NNW 8 13 30.11 1020 N/A 0.00 0.00
7:56 pm 19:56 Sunny 75 23.9 65 18.3 71 71 NNW 8 13 30.10 1019 N/A 0.00 0.00
8:56 pm 20:56 Clear 72 22.2 60 15.6 66 66 N 7 11 30.12 1020 N/A 0.00 0.00
9:56 pm 21:56 Clear 69 20.6 60 15.6 73 73 NNE 6 9 30.14 1021 N/A 0.00 0.00
10:56 pm 22:56 Clear 67 19.4 60 15.6 79 79 NNE 6 9 30.15 1021 N/A 0.00 0.00
11:56 pm 23:56 Clear 64 17.8 60 15.6 87 87 NNE 5 7 30.15 1021 N/A 0.00 0.00

Powered by AerisWeather